Tracking 25693 objects as of 1-Jul-2022
HD Live streaming from Space Station
objects crossing your sky now

DMSP 5D-2 F13 DEB

Track DMSP 5D-2 F13 DEB now!
10-day predictions


NORAD ID: 40604
Int'l Code: 1995-015FB
Perigee: 597.2 km
Apogee: 758.7 km
Inclination: 98.7 °
Period: 98.2 minutes
Semi major axis: 7048 km
RCS: Unknown
Launch date: March 24, 1995
Source: United States (US)
Launch site: AIR FORCE WESTERN TEST RANGE (AFWTR)

Note: This is SATELLITE DEBRIS
aabbcc
Your satellite tracking list
Your tracking list is empty




NASA's NSSDC Master Catalog

Two Line Element Set (TLE):
1 40604U 95015FB  22181.23277247  .00005186  00000-0  84877-3 0  9999
2 40604  98.7018 337.9211 0114542  68.5173 292.8197 14.66963421382410
Source of the keplerian elements: AFSPC